Find OneWeb SL0148

NORAD ID: 48059 Int'l Des: 2021-025 Owner: ONEWEBN Country: UK Constellation: oneweb operational
LEOCIRCULARPOLARONEWEB_TYPE

Live Position

Loading 3D Globe...

About OneWeb SL0148

Description loading...

Upcoming Passes

Passes for default location (London). Set your location on the main map for personalized predictions.

Altitude History

Loading altitude history...

Two-Line Element Set

1 48059U 21025T 26109.84568767 .00000223 00000-0 57540-3 0 9996
2 48059 87.8976 331.8516 0001208 96.0566 264.0701 13.13469092245956
Epoch: Apr 19, 2026 • Age: 6 hours

Current Status

Altitude 1212.2 km
Velocity 7.25 km/s
Sub-Earth Point 24.23°N, 95.92°W
Launch Date Mar 25, 2021
Age 5 years
Type internet

Technical Details

Classification Payload
Mass 148.00 kg
Dry Mass 140.00 kg
Total Mass 148.00 kg
Length 1.30 m
Diameter 1.00 m
Span 5.00 m
Shape Trapezoid+2 pan
Manufacturer ONEWUS
Bus Type ARROW
Phase Status In Orbit
Owner/State ONEWEBN/UK

Most Searched